Content
SEND FEEDBACK

Daily
Averages
Monthly
Summary
United States of America

ANN ARBOR, MICHIGAN


Home > North America > United States > Michigan
Elevation: 759 feet     Latitude: 42 17N     Longitude: 083 43W

WEATHER
 
SELECT A DAY
Number of Records: 203,415;   Date Range: 1/1/95 - 7/29/14
 
SHARE

PRINT THIS DATA

[ ← Previous Day ]
WEATHER ALMANAC - MARCH 29, 2013
[ Next Day → ]
[ °C ]   °F
Weather ElementAverageHighLow
Temperature39.2 °F53.1 °F (5:53 pm)27 °F (5:53 am)
Dewpoint19.8 °F23 °F (8:53 pm)17.1 °F (12:53 pm)
Humidity49.9 %75 % (5:53 am)25 % (5:53 pm)
Barometer30.26 in30.30 in (7:53 am)30.21 in (4:53 pm)
Wind Speed4.4 mph10.4 mph (3:53 pm)
Wind Gust16.1 mph (3:53 pm)
Weather ElementAverage
Visibility10 mi
Wind DirectionSSW (213.5 °)

Weather ElementTotal
Precipitation---
Heating Degree Days25 (Base 65)
Averaged from 23 records on March 29, 2013
WEATHER CONDITIONS BREAKOUT
WIND DIRECTION BREAKOUT
WEATHER BY HOUR - MARCH 29, 2013
[ °C ]   °F
Local TimeTemperatureDewpointHumidityBarometerVisibilityWind DirectionWind SpeedGust SpeedPrecipitationEventsConditions
1:53 AM36.0 °F21.9 °F57 %30.28 in10.0 miNW (320°)3.5 mphClear
2:53 AM30.0 °F21.0 °F69 %30.28 in10.0 miNW (320°)3.5 mphClear
3:53 AM28.9 °F19.9 °F69 %30.28 in10.0 miWest (270°)5.8 mphClear
4:53 AM28.9 °F21.0 °F72 %30.28 in10.0 miWest (280°)6.9 mphClear
5:53 AM27.0 °F19.9 °F75 %30.28 in10.0 miCalmClear
6:53 AM27.0 °F19.0 °F72 %30.29 in10.0 miCalmClear
7:53 AM28.0 °F19.9 °F72 %30.30 in10.0 miCalmClear
8:53 AM36.0 °F21.9 °F57 %30.30 in10.0 miNNW (330°)4.6 mphClear
9:53 AM39.9 °F19.9 °F45 %30.30 in10.0 miNNW (330°)9.2 mphClear
10:53 AM43.0 °F19.9 °F40 %30.30 in10.0 miNorth (350°)6.9 mphClear
11:53 AM44.1 °F18.0 °F35 %30.29 in10.0 miNNW (330°)4.6 mphClear
12:53 PM48.0 °F17.1 °F29 %30.28 in10.0 miVariable4.6 mphClear
1:53 PM50.0 °F19.0 °F29 %30.26 in10.0 miCalmClear
2:53 PM50.0 °F18.0 °F28 %30.24 in10.0 miWNW (300°)5.8 mphClear
3:53 PM52.0 °F19.0 °F27 %30.22 in10.0 miWest (280°)10.4 mph16.1 mphClear
4:53 PM52.0 °F18.0 °F26 %30.21 in10.0 miWest (280°)4.6 mphPartly Cloudy
5:53 PM53.1 °F18.0 °F25 %30.21 in10.0 miWNW (300°)9.2 mphOvercast
6:53 PM50.0 °F17.1 °F27 %30.21 in10.0 miWNW (300°)8.1 mphMostly Cloudy
7:53 PM46.9 °F19.0 °F33 %30.22 in10.0 miWNW (300°)3.5 mphPartly Cloudy
8:53 PM36.0 °F23.0 °F59 %30.22 in10.0 miNW (320°)3.5 mphClear
9:53 PM32.0 °F21.9 °F66 %30.23 in10.0 miCalmClear
10:53 PM30.0 °F21.0 °F69 %30.24 in10.0 miCalmClear
11:53 PM32.0 °F21.9 °F66 %30.23 in10.0 miWNW (300°)6.9 mphClear
Hourly data recorded from KARB, located miles away from Ann Arbor, Michigan







STORIES FROM OUR PARTNERS